Terminal Aerodrome Forecast
Issued by NWS

Home | Current Version | Previous Version | Text Only | Print | Product List | Glossary On
Versions: 1 2 3 4 5 6 7 8 9 10 11 12 13 14 15 16 17 18
000
FTUS43 KDVN 290500
TAFCID
TAF
KCID 290520Z 2906/3006 29011KT P6SM OVC050
     FM291500 30012G20KT P6SM SCT050
     FM300000 27004KT P6SM SKC=

USA.gov is the U.S. government's official web portal to all federal, state and local government web resources and services.